User: anonymous   Login
Location: Burla
(50.9568°N, 10.4983°E)
Time: 10:49:57
(UTC+00:00)
Language:

Cosmos 1763 Rocket - Orbit

View from above orbital plane
View from above orbital plane
View from above satellite
View from above satellite

Ground track
Ground track

The orbit is defined by the following mean orbital elements,

1 16864U          26071.99280354 +.00000000 +00000-0 +87618-4 0 00008
2 16864  74.0287 306.4538 0032238 340.6056  19.3871 14.42276888    05
Epoch (UTC): 12 March 2026 23:49:38
Eccentricity: 0.0032238
inclination: 74.0287°
perigee height: 728 km
apogee height: 774 km
right ascension of ascending node: 306.4538°
argument of perigee: 340.6056°
revolutions per day: 14.42276888
mean anomaly at epoch: 19.3871°

The dashed part of the orbit path shows where the satellite is in the earth's shadow,  

DLR